{"data":{"norad_id":54759,"epoch":"2026-09-20T15:20:21.640704Z","epoch_age_seconds":77844,"freshness":"FRESH","line1":"1 54759U 22175B   26263.63913936  .00000487  00000+0  27449-4 0  9994","line2":"2 54759  53.1588 231.1246 0001268  96.9117 263.2028 15.31696680209594","mean_motion":15.3169668,"eccentricity":0.0001268,"inclination_deg":53.1588,"raan_deg":231.1246,"arg_perigee_deg":96.9117,"mean_anomaly_deg":263.2028,"bstar":2.7449e-5,"rev_number":20959,"period_min":94.013391737586,"perigee_km":469.88145313286,"apogee_km":471.61833084867,"semimajor_km":6848.8868919908,"source":"CELESTRAK","updated_at":"2026-09-21T09:00:33.119475Z"}}